Terminal Aerodrome Forecast
Issued by NWS El Paso, TX

Home | Current Version | Previous Version | Text Only | Print | Product List | Glossary On
Versions: 1 2 3 4 5 6 7 8 9 10 11 12
000
FTUS44 KEPZ 290600 RRA
TAFELP
TAF
KELP 290602Z 2906/3006 02004KT P6SM FEW150 BKN250
     FM291500 04014G22KT P6SM SCT050 BKN150
     FM292000 07015G25KT P6SM VCSH BKN050 OVC100
     FM300300 08011KT P6SM -SHRA SCT025 BKN040=

USA.gov is the U.S. government's official web portal to all federal, state and local government web resources and services.